{"data":{"norad_id":66687,"intl_designator":"2025-276X","name":"LEO EXPRESS 3","alt_names":[],"object_type":"PAYLOAD","status":"ACTIVE","operator":null,"country":"US","launch_date":"2025-11-28","launch_site_code":"AFWTR","launch_vehicle":null,"mission":null,"orbit_class":"UNKNOWN","rcs_meters":null,"size_class":null,"mass_kg":null,"dimensions":null,"purposes":[],"wikipedia_slug":null,"has_3d_model":false,"image_url":null,"decayed_at":null,"tle_current":{"epoch":"2026-09-20T21:46:02.954496Z","epoch_age_seconds":85846,"freshness":"FRESH","line1":"1 66687U 25276X   26263.90697864  .00007056  00000+0  30521-3 0  9994","line2":"2 66687  97.4181 336.3188 0004586 153.8020 206.3450 15.22745245 44981","mean_motion":15.22745245,"eccentricity":0.0004586,"inclination_deg":97.4181,"raan_deg":336.3188,"arg_perigee_deg":153.802,"mean_anomaly_deg":206.345,"bstar":0.00030521,"rev_number":4498,"period_min":94.56604804568,"perigee_km":494.41118567681,"apogee_km":500.71757898468,"semimajor_km":6875.7013823307,"source":"CELESTRAK","updated_at":"2026-09-21T09:00:16.125355Z"}}}